Time,TemperatureF,DewpointF,PressureIn,WindDirection,WindDirectionDegrees,WindSpeedMPH,WindSpeedGustMPH,Humidity,HourlyPrecipIn,Conditions,Clouds,dailyrainin,SolarRadiationWatts/m^2,SoftwareType,DateUTC
2013-03-14 00:02:00,22.0,13.0,-100.00,South,180,5.0,6.0,69,0.00,,,0.00,1.000000,,2013-03-14 05:02:00,
2013-03-14 00:33:00,21.0,13.0,-100.00,South,188,5.0,7.0,72,0.00,,,0.00,1.000000,,2013-03-14 05:33:00,
2013-03-14 00:42:00,21.0,13.0,-100.00,South,188,5.0,7.0,72,0.00,,,0.00,1.000000,,2013-03-14 05:42:00,
2013-03-14 00:53:00,21.0,13.0,-100.00,South,188,5.0,7.0,72,0.00,,,0.00,1.000000,,2013-03-14 05:53:00,
2013-03-14 01:02:00,21.0,13.0,-100.00,South,188,5.0,7.0,72,0.00,,,0.00,1.000000,,2013-03-14 06:02:00,
2013-03-14 01:33:00,21.0,14.0,-100.00,South,170,4.0,6.0,74,0.00,,,0.00,1.000000,,2013-03-14 06:33:00,
2013-03-14 01:42:00,21.0,14.0,-100.00,South,170,4.0,6.0,74,0.00,,,0.00,1.000000,,2013-03-14 06:42:00,
2013-03-14 01:52:00,21.0,14.0,-100.00,South,170,4.0,6.0,74,0.00,,,0.00,1.000000,,2013-03-14 06:52:00,
2013-03-14 02:02:00,21.0,14.0,-100.00,South,170,4.0,6.0,74,0.00,,,0.00,1.000000,,2013-03-14 07:02:00,
2013-03-14 02:32:00,21.0,14.0,-100.00,SSE,163,4.0,5.0,74,0.00,,,0.00,1.000000,,2013-03-14 07:32:00,
2013-03-14 02:43:00,21.0,14.0,-100.00,SSE,163,4.0,5.0,74,0.00,,,0.00,1.000000,,2013-03-14 07:43:00,
2013-03-14 02:52:00,21.0,14.0,-100.00,SSE,163,4.0,5.0,74,0.00,,,0.00,1.000000,,2013-03-14 07:52:00,
2013-03-14 03:02:00,21.0,14.0,-100.00,SSE,163,4.0,5.0,74,0.00,,,0.00,1.000000,,2013-03-14 08:02:00,
2013-03-14 03:32:00,21.0,16.0,-100.00,East,98,3.0,6.0,81,0.00,,,0.00,1.000000,,2013-03-14 08:32:00,
2013-03-14 03:42:00,21.0,16.0,-100.00,East,98,3.0,6.0,81,0.00,,,0.00,1.000000,,2013-03-14 08:42:00,
2013-03-14 03:52:00,21.0,16.0,-100.00,East,98,3.0,6.0,81,0.00,,,0.00,1.000000,,2013-03-14 08:52:00,
2013-03-14 04:01:00,21.0,16.0,-100.00,East,98,3.0,6.0,81,0.00,,,0.00,1.000000,,2013-03-14 09:01:00,
2013-03-14 04:32:00,21.0,19.0,-100.00,SSE,166,5.0,7.0,91,0.00,,,0.00,1.000000,,2013-03-14 09:32:00,
2013-03-14 04:42:00,21.0,19.0,-100.00,SSE,166,5.0,7.0,91,0.00,,,0.00,1.000000,,2013-03-14 09:42:00,
2013-03-14 04:52:00,21.0,19.0,-100.00,SSE,166,5.0,7.0,91,0.00,,,0.00,1.000000,,2013-03-14 09:52:00,
2013-03-14 05:02:00,21.0,19.0,-100.00,SSE,166,5.0,7.0,91,0.00,,,0.00,1.000000,,2013-03-14 10:02:00,
2013-03-14 05:32:00,21.0,19.0,-100.00,East,91,4.0,6.0,92,0.00,,,0.00,1.000000,,2013-03-14 10:32:00,
2013-03-14 05:42:00,21.0,19.0,-100.00,East,91,4.0,6.0,92,0.00,,,0.00,1.000000,,2013-03-14 10:42:00,
2013-03-14 05:52:00,21.0,19.0,-100.00,East,91,4.0,6.0,92,0.00,,,0.00,1.000000,,2013-03-14 10:52:00,
2013-03-14 06:02:00,21.0,19.0,-100.00,East,91,4.0,6.0,92,0.00,,,0.00,1.000000,,2013-03-14 11:02:00,
2013-03-14 06:33:00,21.0,19.0,-100.00,ESE,112,4.0,8.0,92,0.00,,,0.00,1.000000,,2013-03-14 11:33:00,
2013-03-14 06:42:00,21.0,19.0,-100.00,ESE,112,4.0,8.0,92,0.00,,,0.00,1.000000,,2013-03-14 11:42:00,
2013-03-14 06:53:00,21.0,19.0,-100.00,ESE,112,4.0,8.0,92,0.00,,,0.00,1.000000,,2013-03-14 11:53:00,
2013-03-14 07:02:00,21.0,19.0,-100.00,ESE,112,4.0,8.0,92,0.00,,,0.00,1.000000,,2013-03-14 12:02:00,
2013-03-14 07:33:00,22.0,20.0,-100.00,ESE,118,5.0,7.0,92,0.00,,,0.00,1.000000,,2013-03-14 12:33:00,
2013-03-14 07:43:00,22.0,20.0,-100.00,ESE,118,5.0,7.0,92,0.00,,,0.00,1.000000,,2013-03-14 12:43:00,
2013-03-14 07:52:00,22.0,20.0,-100.00,ESE,118,5.0,7.0,92,0.00,,,0.00,1.000000,,2013-03-14 12:52:00,
2013-03-14 08:02:00,22.0,20.0,-100.00,ESE,118,5.0,7.0,92,0.00,,,0.00,1.000000,,2013-03-14 13:02:00,
2013-03-14 08:32:00,22.0,20.0,-100.00,East,87,5.0,7.0,91,0.00,,,0.00,4.000000,,2013-03-14 13:32:00,
2013-03-14 08:43:00,22.0,20.0,-100.00,East,87,5.0,7.0,91,0.00,,,0.00,4.000000,,2013-03-14 13:43:00,
2013-03-14 08:52:00,22.0,20.0,-100.00,East,87,5.0,7.0,91,0.00,,,0.00,4.000000,,2013-03-14 13:52:00,
2013-03-14 09:02:00,22.0,20.0,-100.00,East,87,5.0,7.0,91,0.00,,,0.00,4.000000,,2013-03-14 14:02:00,
2013-03-14 09:32:00,23.0,20.0,-100.00,East,94,6.0,8.0,89,0.00,,,0.00,28.000000,,2013-03-14 14:32:00,
2013-03-14 09:42:00,23.0,20.0,-100.00,East,94,6.0,8.0,89,0.00,,,0.00,28.000000,,2013-03-14 14:42:00,
2013-03-14 09:53:00,23.0,20.0,-100.00,East,94,6.0,8.0,89,0.00,,,0.00,28.000000,,2013-03-14 14:53:00,
2013-03-14 10:02:00,23.0,20.0,-100.00,East,94,6.0,8.0,89,0.00,,,0.00,28.000000,,2013-03-14 15:02:00,
2013-03-14 10:33:00,26.0,22.0,-100.00,SE,130,6.0,10.0,84,0.00,,,0.00,94.000000,,2013-03-14 15:33:00,
2013-03-14 10:43:00,26.0,22.0,-100.00,SE,130,6.0,10.0,84,0.00,,,0.00,94.000000,,2013-03-14 15:43:00,
2013-03-14 10:52:00,26.0,22.0,-100.00,SE,130,6.0,10.0,84,0.00,,,0.00,94.000000,,2013-03-14 15:52:00,
2013-03-14 11:03:00,26.0,22.0,-100.00,SE,130,6.0,10.0,84,0.00,,,0.00,94.000000,,2013-03-14 16:03:00,
2013-03-14 11:33:00,30.0,23.0,-100.00,SE,139,6.0,10.0,76,0.04,,,0.04,237.000000,,2013-03-14 16:33:00,
2013-03-14 11:42:00,30.0,23.0,-100.00,SE,139,6.0,10.0,76,0.04,,,0.04,237.000000,,2013-03-14 16:42:00,
2013-03-14 11:52:00,30.0,23.0,-100.00,SE,139,6.0,10.0,76,0.04,,,0.04,237.000000,,2013-03-14 16:52:00,
2013-03-14 12:02:00,30.0,23.0,-100.00,SE,139,6.0,10.0,76,0.04,,,0.04,237.000000,,2013-03-14 17:02:00,
2013-03-14 12:33:00,33.0,25.0,-100.00,South,183,6.0,11.0,73,0.03,,,0.07,541.000000,,2013-03-14 17:33:00,
2013-03-14 12:42:00,33.0,25.0,-100.00,South,183,6.0,11.0,73,0.03,,,0.07,541.000000,,2013-03-14 17:42:00,
2013-03-14 12:52:00,33.0,25.0,-100.00,South,183,6.0,11.0,73,0.03,,,0.07,541.000000,,2013-03-14 17:52:00,
2013-03-14 13:02:00,33.0,25.0,-100.00,South,183,6.0,11.0,73,0.03,,,0.07,541.000000,,2013-03-14 18:02:00,
2013-03-14 13:33:00,34.0,24.0,-100.00,WSW,243,5.0,11.0,66,0.00,,,0.07,514.000000,,2013-03-14 18:33:00,
2013-03-14 13:43:00,34.0,24.0,-100.00,WSW,243,5.0,11.0,66,0.00,,,0.07,514.000000,,2013-03-14 18:43:00,
2013-03-14 13:52:00,34.0,24.0,-100.00,WSW,243,5.0,11.0,66,0.00,,,0.07,514.000000,,2013-03-14 18:52:00,
2013-03-14 14:03:00,34.0,24.0,-100.00,WSW,243,5.0,11.0,66,0.00,,,0.07,514.000000,,2013-03-14 19:03:00,
2013-03-14 15:32:00,43.0,27.0,-100.00,South,173,5.0,7.0,52,-99.99,,,0.07,667.000000,,2013-03-14 20:32:00,
2013-03-14 15:42:00,43.0,27.0,-100.00,South,173,5.0,7.0,52,-99.99,,,0.07,667.000000,,2013-03-14 20:42:00,
2013-03-14 15:52:00,43.0,27.0,-100.00,South,173,5.0,7.0,52,-99.99,,,0.07,667.000000,,2013-03-14 20:52:00,
2013-03-14 16:02:00,43.0,27.0,-100.00,South,173,5.0,7.0,52,-99.99,,,0.07,667.000000,,2013-03-14 21:02:00,
2013-03-14 16:33:00,38.0,25.0,-100.00,SSW,209,6.0,10.0,59,0.00,,,0.07,487.000000,,2013-03-14 21:33:00,
2013-03-14 16:43:00,38.0,25.0,-100.00,SSW,209,6.0,10.0,59,0.00,,,0.07,487.000000,,2013-03-14 21:43:00,
2013-03-14 16:53:00,38.0,25.0,-100.00,SSW,209,6.0,10.0,59,0.00,,,0.07,487.000000,,2013-03-14 21:53:00,
2013-03-14 17:03:00,38.0,25.0,-100.00,SSW,209,6.0,10.0,59,0.00,,,0.07,487.000000,,2013-03-14 22:03:00,
2013-03-14 17:33:00,37.0,25.0,-100.00,SSW,207,9.0,12.0,62,0.00,,,0.07,361.000000,,2013-03-14 22:33:00,
2013-03-14 17:42:00,37.0,25.0,-100.00,SSW,207,9.0,12.0,62,0.00,,,0.07,361.000000,,2013-03-14 22:42:00,
2013-03-14 17:52:00,37.0,25.0,-100.00,SSW,207,9.0,12.0,62,0.00,,,0.07,361.000000,,2013-03-14 22:52:00,
2013-03-14 18:02:00,37.0,25.0,-100.00,SSW,207,9.0,12.0,62,0.00,,,0.07,361.000000,,2013-03-14 23:02:00,
2013-03-14 18:33:00,36.0,25.0,-100.00,WSW,251,6.0,12.0,63,0.00,,,0.07,226.000000,,2013-03-14 23:33:00,
2013-03-14 18:43:00,36.0,25.0,-100.00,WSW,251,6.0,12.0,63,0.00,,,0.07,226.000000,,2013-03-14 23:43:00,
2013-03-14 18:53:00,36.0,25.0,-100.00,WSW,251,6.0,12.0,63,0.00,,,0.07,226.000000,,2013-03-14 23:53:00,
2013-03-14 19:02:00,36.0,25.0,-100.00,WSW,251,6.0,12.0,63,0.00,,,0.07,226.000000,,2013-03-15 00:02:00,
2013-03-14 19:32:00,34.0,25.0,-100.00,SW,228,5.0,9.0,69,0.00,,,0.07,69.000000,,2013-03-15 00:32:00,
2013-03-14 19:43:00,34.0,25.0,-100.00,SW,228,5.0,9.0,69,0.00,,,0.07,69.000000,,2013-03-15 00:43:00,
2013-03-14 19:52:00,34.0,25.0,-100.00,SW,228,5.0,9.0,69,0.00,,,0.07,69.000000,,2013-03-15 00:52:00,
2013-03-14 20:02:00,34.0,25.0,-100.00,SW,228,5.0,9.0,69,0.00,,,0.07,69.000000,,2013-03-15 01:02:00,
2013-03-14 20:33:00,32.0,25.0,-100.00,SSW,201,4.0,7.0,75,0.00,,,0.07,2.000000,,2013-03-15 01:33:00,
2013-03-14 20:43:00,32.0,25.0,-100.00,SSW,201,4.0,7.0,75,0.00,,,0.07,2.000000,,2013-03-15 01:43:00,
2013-03-14 20:52:00,32.0,25.0,-100.00,SSW,201,4.0,7.0,75,0.00,,,0.07,2.000000,,2013-03-15 01:52:00,
2013-03-14 21:02:00,32.0,25.0,-100.00,SSW,201,4.0,7.0,75,0.00,,,0.07,2.000000,,2013-03-15 02:02:00,
2013-03-14 21:32:00,29.0,24.0,-100.00,WSW,246,2.0,5.0,80,0.00,,,0.07,1.000000,,2013-03-15 02:32:00,
2013-03-14 21:42:00,29.0,24.0,-100.00,WSW,246,2.0,5.0,80,0.00,,,0.07,1.000000,,2013-03-15 02:42:00,
2013-03-14 21:52:00,29.0,24.0,-100.00,WSW,246,2.0,5.0,80,0.00,,,0.07,1.000000,,2013-03-15 02:52:00,
2013-03-14 22:02:00,29.0,24.0,-100.00,WSW,246,2.0,5.0,80,0.00,,,0.07,1.000000,,2013-03-15 03:02:00,
2013-03-14 22:33:00,27.0,24.0,-100.00,WSW,237,2.0,4.0,87,0.00,,,0.07,1.000000,,2013-03-15 03:33:00,
2013-03-14 22:43:00,27.0,24.0,-100.00,WSW,237,2.0,4.0,87,0.00,,,0.07,1.000000,,2013-03-15 03:43:00,
2013-03-14 22:53:00,27.0,24.0,-100.00,WSW,237,2.0,4.0,87,0.00,,,0.07,1.000000,,2013-03-15 03:53:00,
2013-03-14 23:03:00,27.0,24.0,-100.00,WSW,237,2.0,4.0,87,0.00,,,0.07,1.000000,,2013-03-15 04:03:00,
2013-03-14 23:33:00,26.0,22.0,-100.00,WSW,258,2.0,4.0,85,0.00,,,0.07,1.000000,,2013-03-15 04:33:00,
2013-03-14 23:43:00,26.0,22.0,-100.00,WSW,258,2.0,4.0,85,0.00,,,0.07,1.000000,,2013-03-15 04:43:00,
2013-03-14 23:53:00,26.0,22.0,-100.00,WSW,258,2.0,4.0,85,0.00,,,0.07,1.000000,,2013-03-15 04:53:00,